When you browse on this site, cookies collect data to enhance your experience and personalize the content and advertising you see.
Visit our Privacy Policy to learn more. By continuing to use the site, you agree to this use of cookies and data.
  • In Österreich
  • Länderverzeichnis
  • Für 7 Tage
  • Wassertemperatur
  • Wetterkarte
  • News
  • Widgets
  • user-avatar
    Anmelden

    Stündliche Wetter Strongsville

    Heute, 22 Januar, Mittwoch

    Zeit Temperatur Niederschläge Wind Luftdruck Luftfeuchtigkeit
    00:00 -12°C° 0 mm 3 m/S 747 mmHg 90%
    01:00 -12°C° 0 mm 3 m/S 747 mmHg 91%
    02:00 -12°C° 0 mm 3 m/S 746 mmHg 90%
    03:00 -12°C° 0 mm 3 m/S 746 mmHg 90%
    04:00 -12°C° 0 mm 3 m/S 746 mmHg 90%
    05:00 -12°C° 0 mm 3 m/S 746 mmHg 89%
    06:00 -12°C° 0 mm 3 m/S 746 mmHg 89%
    07:00 -12°C° 0 mm 4 m/S 746 mmHg 88%
    08:00 -11°C° 0 mm 4 m/S 746 mmHg 85%
    09:00 -10°C° 0 mm 4 m/S 746 mmHg 83%
    10:00 -9°C° 0 mm 4 m/S 745 mmHg 80%
    11:00 -7°C° 0 mm 4 m/S 745 mmHg 78%
    12:00 -5°C° 0 mm 4 m/S 745 mmHg 76%
    13:00 -4°C° 0 mm 4 m/S 745 mmHg 75%
    14:00 -4°C° 0 mm 4 m/S 744 mmHg 76%
    15:00 -4°C° 0 mm 4 m/S 744 mmHg 77%
    16:00 -4°C° 0 mm 4 m/S 743 mmHg 78%
    17:00 -4°C° 0 mm 4 m/S 744 mmHg 78%
    18:00 -5°C° 0 mm 4 m/S 744 mmHg 78%
    19:00 -7°C° 0 mm 4 m/S 744 mmHg 78%
    20:00 -7°C° 0 mm 4 m/S 744 mmHg 77%
    21:00 -7°C° 0 mm 4 m/S 743 mmHg 76%
    22:00 -7°C° 0 mm 4 m/S 743 mmHg 75%
    23:00 -7°C° 0 mm 4 m/S 743 mmHg 75%

    Morgen, 23 Januar, Donnerstag

    Zeit Temperatur Niederschläge Wind Luftdruck Luftfeuchtigkeit
    00:00 -7°C° 0 mm 4 m/S 743 mmHg 75%
    01:00 -7°C° 0 mm 4 m/S 743 mmHg 75%
    02:00 -6°C° 0 mm 3 m/S 742 mmHg 76%
    03:00 -6°C° 0 mm 3 m/S 742 mmHg 77%
    04:00 -6°C° 0 mm 3 m/S 742 mmHg 78%
    05:00 -6°C° 0 mm 3 m/S 742 mmHg 78%
    06:00 -6°C° 0 mm 3 m/S 742 mmHg 78%
    07:00 -6°C° 0 mm 3 m/S 743 mmHg 78%
    08:00 -5°C° 0 mm 3 m/S 743 mmHg 77%
    09:00 -4°C° 0 mm 3 m/S 743 mmHg 77%
    10:00 -2°C° 0 mm 3 m/S 743 mmHg 76%
    11:00 -1°C° 0 mm 3 m/S 742 mmHg 78%
    12:00 0°C° 0 mm 3 m/S 742 mmHg 79%
    13:00 +1°C° 0 mm 3 m/S 742 mmHg 81%
    14:00 +1°C° 0 mm 3 m/S 741 mmHg 82%
    15:00 +1°C° 0 mm 3 m/S 741 mmHg 82%
    16:00 +1°C° 0 mm 2 m/S 741 mmHg 83%
    17:00 0°C° 0 mm 3 m/S 741 mmHg 81%
    18:00 -1°C° 0 mm 3 m/S 741 mmHg 79%
    19:00 -1°C° 0 mm 3 m/S 741 mmHg 78%
    20:00 -2°C° 0 mm 3 m/S 741 mmHg 78%
    21:00 -2°C° 0 mm 2 m/S 741 mmHg 78%
    22:00 -2°C° 0 mm 2 m/S 741 mmHg 78%
    23:00 -2°C° 0 mm 2 m/S 740 mmHg 78%

    übermorgen, 24 Januar, Freitag

    Zeit Temperatur Niederschläge Wind Luftdruck Luftfeuchtigkeit
    00:00 -2°C° 0 mm 2 m/S 740 mmHg 77%
    01:00 -2°C° 0 mm 3 m/S 740 mmHg 77%
    02:00 -2°C° 0 mm 2 m/S 739 mmHg 77%
    03:00 -2°C° 0 mm 2 m/S 739 mmHg 78%
    04:00 -1°C° 0 mm 2 m/S 739 mmHg 78%
    05:00 -1°C° 0 mm 2 m/S 739 mmHg 79%
    06:00 -2°C° 0 mm 2 m/S 739 mmHg 79%
    07:00 -2°C° 0 mm 3 m/S 739 mmHg 80%
    08:00 -1°C° 0 mm 3 m/S 738 mmHg 80%
    09:00 0°C° 0 mm 3 m/S 738 mmHg 79%
    10:00 0°C° 0 mm 3 m/S 738 mmHg 78%
    11:00 +1°C° 0 mm 3 m/S 737 mmHg 79%
    12:00 +1°C° 0 mm 3 m/S 737 mmHg 81%
    13:00 +1°C° 0 mm 3 m/S 736 mmHg 82%
    14:00 0°C° 0.2 mm 4 m/S 735 mmHg 84%
    15:00 0°C° 0.2 mm 4 m/S 735 mmHg 86%
    16:00 0°C° 0.2 mm 4 m/S 734 mmHg 88%
    17:00 0°C° 0.3 mm 4 m/S 734 mmHg 90%
    18:00 0°C° 0.3 mm 5 m/S 734 mmHg 92%
    19:00 0°C° 0.3 mm 5 m/S 733 mmHg 94%
    20:00 0°C° 0.7 mm 5 m/S 733 mmHg 94%
    21:00 +1°C° 0.7 mm 5 m/S 733 mmHg 95%
    22:00 +1°C° 0.7 mm 5 m/S 732 mmHg 96%
    23:00 +1°C° 0.5 mm 5 m/S 732 mmHg 96%

    25 Januar, Samstag

    Zeit Temperatur Niederschläge Wind Luftdruck Luftfeuchtigkeit
    00:00 +1°C° 0.5 mm 4 m/S 732 mmHg 96%
    01:00 +1°C° 0.5 mm 4 m/S 731 mmHg 96%
    02:00 +1°C° 0.3 mm 4 m/S 731 mmHg 97%
    03:00 +2°C° 0.3 mm 3 m/S 731 mmHg 97%
    04:00 +2°C° 0.3 mm 3 m/S 731 mmHg 98%
    05:00 +1°C° 0.2 mm 3 m/S 731 mmHg 97%
    06:00 +1°C° 0.2 mm 3 m/S 731 mmHg 97%
    07:00 0°C° 0.2 mm 3 m/S 731 mmHg 97%
    08:00 0°C° 0 mm 3 m/S 731 mmHg 97%
    09:00 +1°C° 0 mm 3 m/S 731 mmHg 96%
    10:00 +1°C° 0 mm 3 m/S 731 mmHg 96%
    11:00 +2°C° 0.1 mm 2 m/S 731 mmHg 96%
    12:00 +2°C° 0.1 mm 2 m/S 731 mmHg 97%
    13:00 +2°C° 0.1 mm 2 m/S 731 mmHg 97%
    14:00 +3°C° 0 mm 1 m/S 731 mmHg 97%
    15:00 +3°C° 0 mm 1 m/S 731 mmHg 97%
    16:00 +3°C° 0 mm 1 m/S 731 mmHg 97%
    17:00 +2°C° 0.1 mm 2 m/S 731 mmHg 98%
    18:00 +2°C° 0.1 mm 2 m/S 731 mmHg 98%
    19:00 +2°C° 0.1 mm 2 m/S 732 mmHg 98%
    20:00 +1°C° 0.1 mm 3 m/S 732 mmHg 98%
    21:00 +1°C° 0.1 mm 3 m/S 732 mmHg 98%
    22:00 +1°C° 0.1 mm 3 m/S 733 mmHg 98%
    23:00 -1°C° 0.1 mm 4 m/S 733 mmHg 98%

    26 Januar, Sonntag

    Zeit Temperatur Niederschläge Wind Luftdruck Luftfeuchtigkeit
    00:00 -1°C° 0.1 mm 4 m/S 733 mmHg 98%
    01:00 -1°C° 0.1 mm 5 m/S 733 mmHg 97%
    02:00 -1°C° 0.1 mm 5 m/S 733 mmHg 97%
    03:00 -1°C° 0.1 mm 5 m/S 733 mmHg 97%
    04:00 -2°C° 0.1 mm 5 m/S 733 mmHg 97%
    05:00 -2°C° 0.2 mm 5 m/S 734 mmHg 97%
    06:00 -2°C° 0.2 mm 5 m/S 734 mmHg 97%
    07:00 -2°C° 0.2 mm 5 m/S 734 mmHg 97%
    08:00 -2°C° 0.1 mm 5 m/S 735 mmHg 97%
    09:00 -2°C° 0.1 mm 5 m/S 735 mmHg 97%
    10:00 -2°C° 0.1 mm 5 m/S 736 mmHg 97%
    11:00 -1°C° 0 mm 5 m/S 736 mmHg 96%
    12:00 -1°C° 0 mm 5 m/S 736 mmHg 96%
    13:00 -1°C° 0 mm 5 m/S 735 mmHg 96%
    14:00 -1°C° 0 mm 5 m/S 735 mmHg 96%
    15:00 -1°C° 0 mm 5 m/S 736 mmHg 95%
    16:00 -2°C° 0 mm 5 m/S 736 mmHg 95%
    17:00 -2°C° 0.1 mm 5 m/S 736 mmHg 95%
    18:00 -2°C° 0.1 mm 4 m/S 736 mmHg 95%
    19:00 -2°C° 0.1 mm 4 m/S 736 mmHg 95%
    20:00 -2°C° 0 mm 4 m/S 737 mmHg 95%
    21:00 -3°C° 0 mm 4 m/S 737 mmHg 94%
    22:00 -2°C° 0 mm 3 m/S 737 mmHg 94%
    23:00 -2°C° 0 mm 3 m/S 737 mmHg 93%

    27 Januar, Montag

    Zeit Temperatur Niederschläge Wind Luftdruck Luftfeuchtigkeit
    00:00 -4°C° 0 mm 3 m/S 737 mmHg 93%
    01:00 -4°C° 0 mm 3 m/S 737 mmHg 92%
    02:00 -4°C° 0 mm 3 m/S 737 mmHg 93%
    03:00 -4°C° 0 mm 3 m/S 737 mmHg 93%
    04:00 -4°C° 0 mm 3 m/S 737 mmHg 94%
    05:00 -4°C° 0 mm 3 m/S 737 mmHg 95%
    06:00 -3°C° 0 mm 2 m/S 737 mmHg 96%
    07:00 -3°C° 0 mm 2 m/S 738 mmHg 97%
    08:00 -2°C° 0.1 mm 2 m/S 738 mmHg 94%
    09:00 -2°C° 0.1 mm 3 m/S 738 mmHg 92%
    10:00 -1°C° 0.1 mm 3 m/S 739 mmHg 90%
    11:00 -1°C° 0 mm 3 m/S 739 mmHg 86%
    12:00 0°C° 0 mm 3 m/S 738 mmHg 83%
    13:00 +1°C° 0 mm 2 m/S 738 mmHg 79%
    14:00 +1°C° 0 mm 2 m/S 738 mmHg 79%
    15:00 +1°C° 0 mm 2 m/S 738 mmHg 79%
    16:00 +1°C° 0 mm 2 m/S 738 mmHg 79%
    17:00 +2°C° 0 mm 1 m/S 738 mmHg 81%
    18:00 +2°C° 0 mm 1 m/S 739 mmHg 82%
    19:00 +1°C° 0 mm 1 m/S 739 mmHg 84%
    20:00 0°C° 0 mm 1 m/S 739 mmHg 85%
    21:00 0°C° 0 mm 1 m/S 739 mmHg 87%
    22:00 -3°C° 0 mm 2 m/S 739 mmHg 88%
    23:00 -3°C° 0 mm 2 m/S 739 mmHg 89%
    Mehr zeigen